Date,TemperatureHighF,TemperatureAvgF,TemperatureLowF,DewpointHighF,DewpointAvgF,DewpointLowF,HumidityHigh,HumidityAvg,HumidityLow,PressureMaxIn,PressureMinIn,WindSpeedMaxMPH,WindSpeedAvgMPH,GustSpeedMaxMPH,PrecipitationSumIn
2013-3-1,52.9,46.9,40.6,38.4,33.5,30.8,74,60,47,29.99,29.89,6,0,6,0.00
2013-3-2,51.3,44.0,37.5,36.5,33.6,30.0,82,67,46,29.96,29.86,8,1,8,0.00
2013-3-3,47.7,41.0,33.1,35.1,29.0,26.5,89,63,45,30.04,29.93,10,1,10,0.00
2013-3-4,56.9,43.3,30.0,39.3,27.4,20.3,86,57,26,30.20,30.04,7,0,7,0.00
2013-3-5,63.5,54.7,42.5,57.0,45.5,36.6,99,73,38,30.15,29.73,11,1,11,0.03
2013-3-6,58.7,48.3,41.6,55.5,31.7,23.3,90,54,38,30.09,29.72,14,2,14,0.00
2013-3-7,60.9,47.7,35.8,41.6,34.3,30.0,90,62,36,30.25,30.09,7,0,7,0.00
2013-3-8,60.7,48.5,38.9,39.5,30.8,24.4,92,54,26,30.31,30.17,11,0,11,0.00
2013-3-9,61.8,49.4,39.2,43.6,37.5,31.1,90,65,39,30.34,30.25,12,0,12,0.00
2013-3-10,66.1,52.9,40.9,46.8,42.4,39.1,100,71,38,30.29,30.21,11,1,11,0.00
2013-3-11,70.1,60.5,48.6,60.4,54.6,46.2,100,82,62,30.22,29.92,12,0,12,0.00
2013-3-12,70.3,64.8,57.0,63.6,58.9,48.0,97,82,55,29.95,29.81,14,1,14,0.10
2013-3-13,65.6,56.4,44.2,48.7,35.4,26.7,85,49,25,30.14,29.95,12,1,12,0.00
2013-3-14,55.9,47.6,38.8,35.7,25.7,20.9,78,44,26,30.32,30.11,10,0,10,0.00
2013-3-15,67.8,52.5,40.2,48.8,38.5,30.5,87,62,31,30.26,30.06,7,0,7,0.00
2013-3-16,77.2,64.0,55.6,53.9,49.1,43.6,81,60,36,30.07,29.87,10,1,10,0.00
2013-3-17,75.3,64.9,58.6,58.9,54.0,50.6,83,68,50,30.04,29.95,8,1,8,0.00
2013-3-18,65.3,61.3,58.0,62.9,58.3,54.6,100,90,73,30.08,29.86,11,1,11,0.64
2013-3-19,76.7,63.3,55.3,58.9,50.9,31.9,100,71,26,29.99,29.82,8,0,8,0.02
2013-3-20,64.3,55.5,45.2,40.3,33.1,21.0,83,45,22,30.10,29.84,14,1,14,0.00
2013-3-21,59.2,49.5,42.1,40.8,26.1,15.7,89,44,19,29.96,29.80,12,1,12,0.00
2013-3-22,52.8,46.1,38.6,41.8,30.1,19.7,74,54,43,30.12,29.96,9,1,9,0.00
2013-3-23,56.6,49.9,45.1,53.1,46.5,41.1,100,89,60,30.07,29.89,8,0,8,0.68
2013-3-24,65.3,54.0,47.4,65.3,53.5,46.0,100,98,94,29.89,29.47,13,1,13,2.90
2013-3-25,56.3,49.7,43.6,48.1,33.8,18.7,97,59,27,29.98,29.60,12,2,12,0.00
2013-3-26,51.7,44.0,35.8,31.8,27.4,24.3,69,53,39,30.20,29.98,8,1,8,0.00
2013-3-27,59.2,46.9,33.5,35.1,29.8,25.5,85,55,30,30.30,30.18,7,0,7,0.00
2013-3-28,61.2,49.4,38.9,38.3,30.9,25.2,87,53,27,30.32,30.19,11,0,11,0.00
2013-3-29,63.5,51.4,38.9,45.1,38.2,33.6,95,65,33,30.37,30.22,11,0,11,0.00
2013-3-30,72.7,59.9,49.1,54.9,48.4,40.6,94,69,32,30.25,30.08,6,0,6,0.00
2013-3-31,72.7,64.3,56.9,59.0,56.0,52.0,89,75,59,30.09,29.89,9,1,9,0.02